Time,TemperatureF,DewpointF,PressureIn,WindDirection,WindDirectionDegrees,WindSpeedMPH,WindSpeedGustMPH,Humidity,HourlyPrecipIn,Conditions,Clouds,dailyrainin,SoftwareType,DateUTC
2013-01-22 00:00:00,36.1,15.2,29.94,NW,323,0.0,0.0,42,0.00,,SKC,0.00,VWS V14.01,2013-01-22 05:00:00,
2013-01-22 00:04:00,35.8,15.5,29.94,NW,323,0.0,0.0,43,0.00,,SKC,0.00,VWS V14.01,2013-01-22 05:04:00,
2013-01-22 00:06:00,35.6,15.3,29.94,NW,323,0.0,0.0,43,0.00,,SKC,0.00,VWS V14.01,2013-01-22 05:06:00,
2013-01-22 00:10:00,35.5,16.3,29.95,SW,224,0.0,0.0,45,0.00,,SKC,0.00,VWS V14.01,2013-01-22 05:10:00,
2013-01-22 00:16:00,35.1,15.9,29.95,SW,223,0.0,0.0,45,0.00,,SKC,0.00,VWS V14.01,2013-01-22 05:16:00,
2013-01-22 00:21:00,34.9,15.7,29.95,NW,316,2.0,0.0,45,0.00,,SKC,0.00,VWS V14.01,2013-01-22 05:21:00,
2013-01-22 00:26:00,35.0,14.8,29.95,West,259,0.0,0.0,43,0.00,,SKC,0.00,VWS V14.01,2013-01-22 05:26:00,
2013-01-22 00:31:00,35.0,14.8,29.95,West,279,0.0,0.0,43,0.00,,SKC,0.00,VWS V14.01,2013-01-22 05:31:00,
2013-01-22 00:36:00,34.9,14.1,29.95,West,267,1.0,0.0,42,0.00,,SKC,0.00,VWS V14.01,2013-01-22 05:36:00,
2013-01-22 00:41:00,35.1,13.8,29.96,West,275,0.0,0.0,41,0.00,,SKC,0.00,VWS V14.01,2013-01-22 05:41:00,
2013-01-22 00:46:00,34.9,13.6,29.96,WSW,246,0.0,0.0,41,0.00,,SKC,0.00,VWS V14.01,2013-01-22 05:46:00,
2013-01-22 00:51:00,34.7,12.9,29.95,WNW,291,1.0,0.0,40,0.00,,SKC,0.00,VWS V14.01,2013-01-22 05:51:00,
2013-01-22 00:56:00,34.7,12.9,29.95,NW,314,2.0,0.0,40,0.00,,SKC,0.00,VWS V14.01,2013-01-22 05:56:00,
2013-01-22 01:02:00,34.4,12.6,29.96,West,271,0.0,0.0,40,0.00,,SKC,0.00,VWS V14.01,2013-01-22 06:02:00,
2013-01-22 01:08:00,34.0,12.2,29.95,West,277,0.0,0.0,40,0.00,,SKC,0.00,VWS V14.01,2013-01-22 06:08:00,
2013-01-22 01:14:00,33.9,11.6,29.96,WNW,287,1.0,0.0,39,0.00,,SKC,0.00,VWS V14.01,2013-01-22 06:14:00,
2013-01-22 01:20:00,33.8,11.5,29.96,SW,228,2.0,0.0,39,0.00,,SKC,0.00,VWS V14.01,2013-01-22 06:20:00,
2013-01-22 01:26:00,33.7,10.8,29.96,WSW,240,1.0,0.0,38,0.00,,SKC,0.00,VWS V14.01,2013-01-22 06:26:00,
2013-01-22 01:31:00,33.7,10.8,29.96,WSW,246,2.0,0.0,38,0.00,,SKC,0.00,VWS V14.01,2013-01-22 06:31:00,
2013-01-22 01:36:00,33.5,11.2,29.97,West,269,2.0,0.0,39,0.00,,SKC,0.00,VWS V14.01,2013-01-22 06:36:00,
2013-01-22 01:41:00,33.4,11.1,29.97,West,278,0.0,0.0,39,0.00,,SKC,0.00,VWS V14.01,2013-01-22 06:41:00,
2013-01-22 01:46:00,32.9,11.2,29.97,West,268,0.0,0.0,40,0.00,,SKC,0.00,VWS V14.01,2013-01-22 06:46:00,
2013-01-22 01:53:00,32.6,11.0,29.97,WSW,257,0.0,0.0,40,0.00,,SKC,0.00,VWS V14.01,2013-01-22 06:53:00,
2013-01-22 01:59:00,32.3,10.7,29.97,WSW,256,0.0,0.0,40,0.00,,SKC,0.00,VWS V14.01,2013-01-22 06:59:00,
2013-01-22 02:05:00,32.0,10.4,29.98,WSW,253,0.0,0.0,40,0.00,,SKC,0.00,VWS V14.01,2013-01-22 07:05:00,
2013-01-22 02:11:00,31.7,10.7,29.97,West,266,0.0,0.0,41,0.00,,SKC,0.00,VWS V14.01,2013-01-22 07:11:00,
2013-01-22 02:16:00,31.6,10.6,29.98,WNW,283,0.0,0.0,41,0.00,,SKC,0.00,VWS V14.01,2013-01-22 07:16:00,
2013-01-22 02:21:00,31.6,10.1,29.98,West,264,1.0,0.0,40,0.00,,SKC,0.00,VWS V14.01,2013-01-22 07:21:00,
2013-01-22 02:26:00,31.8,10.2,29.98,West,276,0.0,0.0,40,0.00,,SKC,0.00,VWS V14.01,2013-01-22 07:26:00,
2013-01-22 02:31:00,31.6,10.1,29.98,West,275,0.0,0.0,40,0.00,,SKC,0.00,VWS V14.01,2013-01-22 07:31:00,
2013-01-22 02:36:00,31.3,9.8,29.98,West,276,0.0,0.0,40,0.00,,SKC,0.00,VWS V14.01,2013-01-22 07:36:00,
2013-01-22 02:41:00,31.0,10.6,29.98,West,267,0.0,0.0,42,0.00,,SKC,0.00,VWS V14.01,2013-01-22 07:41:00,
2013-01-22 02:46:00,30.7,10.9,29.98,SW,232,1.0,0.0,43,0.00,,SKC,0.00,VWS V14.01,2013-01-22 07:46:00,
2013-01-22 02:51:00,30.5,10.7,29.98,West,269,1.0,0.0,43,0.00,,SKC,0.00,VWS V14.01,2013-01-22 07:51:00,
2013-01-22 02:57:00,30.5,11.2,29.99,West,279,3.0,0.0,44,0.00,,SKC,0.00,VWS V14.01,2013-01-22 07:57:00,
2013-01-22 03:03:00,30.5,11.7,29.99,West,279,1.0,0.0,45,0.00,,SKC,0.00,VWS V14.01,2013-01-22 08:03:00,
2013-01-22 03:09:00,30.5,11.2,29.99,WNW,283,1.0,0.0,44,0.00,,SKC,0.00,VWS V14.01,2013-01-22 08:09:00,
2013-01-22 03:15:00,30.6,10.8,29.99,West,271,1.0,0.0,43,0.00,,SKC,0.00,VWS V14.01,2013-01-22 08:15:00,
2013-01-22 03:21:00,30.5,10.7,29.99,WNW,284,2.0,0.0,43,0.00,,SKC,0.00,VWS V14.01,2013-01-22 08:21:00,
2013-01-22 03:26:00,30.1,10.8,29.99,West,259,0.0,0.0,44,0.00,,SKC,0.00,VWS V14.01,2013-01-22 08:26:00,
2013-01-22 03:31:00,29.7,11.0,30.00,WNW,298,0.0,0.0,45,0.00,,SKC,0.00,VWS V14.01,2013-01-22 08:31:00,
2013-01-22 03:36:00,29.2,11.0,30.00,WNW,298,0.0,0.0,46,0.00,,SKC,0.00,VWS V14.01,2013-01-22 08:36:00,
2013-01-22 03:41:00,28.5,10.4,30.00,WNW,298,0.0,0.0,46,0.00,,SKC,0.00,VWS V14.01,2013-01-22 08:41:00,
2013-01-22 03:46:00,28.3,11.1,30.00,WNW,289,0.0,0.0,48,0.00,,SKC,0.00,VWS V14.01,2013-01-22 08:46:00,
2013-01-22 03:51:00,28.2,11.5,30.00,WNW,303,0.0,0.0,49,0.00,,SKC,0.00,VWS V14.01,2013-01-22 08:51:00,
2013-01-22 03:56:00,28.3,11.6,30.01,NW,304,2.0,0.0,49,0.00,,SKC,0.00,VWS V14.01,2013-01-22 08:56:00,
2013-01-22 04:01:00,28.4,11.2,30.01,WNW,302,2.0,0.0,48,0.00,,SKC,0.00,VWS V14.01,2013-01-22 09:01:00,
2013-01-22 04:06:00,28.5,11.3,30.01,WNW,302,4.0,0.0,48,0.00,,SKC,0.00,VWS V14.01,2013-01-22 09:06:00,
2013-01-22 04:11:00,28.8,11.6,30.01,NW,307,2.0,0.0,48,0.00,,SKC,0.00,VWS V14.01,2013-01-22 09:11:00,
2013-01-22 04:16:00,28.7,11.5,30.01,WNW,293,1.0,0.0,48,0.00,,SKC,0.00,VWS V14.01,2013-01-22 09:16:00,
2013-01-22 04:21:00,28.5,11.3,30.01,NW,312,0.0,0.0,48,0.00,,SKC,0.00,VWS V14.01,2013-01-22 09:21:00,
2013-01-22 04:26:00,28.5,11.3,30.01,WNW,290,2.0,0.0,48,0.00,,SKC,0.00,VWS V14.01,2013-01-22 09:26:00,
2013-01-22 04:31:00,28.3,11.6,30.01,NW,320,1.0,0.0,49,0.00,,SKC,0.00,VWS V14.01,2013-01-22 09:31:00,
2013-01-22 04:36:00,28.1,11.4,30.02,NW,312,2.0,0.0,49,0.00,,SKC,0.00,VWS V14.01,2013-01-22 09:36:00,
2013-01-22 04:41:00,28.1,11.4,30.02,NW,314,2.0,0.0,49,0.00,,SKC,0.00,VWS V14.01,2013-01-22 09:41:00,
2013-01-22 04:48:00,28.0,10.9,30.03,North,356,1.0,0.0,48,0.00,,SKC,0.00,VWS V14.01,2013-01-22 09:48:00,
2013-01-22 04:54:00,27.9,11.2,30.03,West,278,1.0,0.0,49,0.00,,SKC,0.00,VWS V14.01,2013-01-22 09:54:00,
2013-01-22 05:00:00,27.7,11.0,30.03,NW,314,1.0,0.0,49,0.00,,SKC,0.00,VWS V14.01,2013-01-22 10:00:00,
2013-01-22 05:06:00,27.5,10.9,30.03,WNW,301,1.0,0.0,49,0.00,,SKC,0.00,VWS V14.01,2013-01-22 10:06:00,
2013-01-22 05:11:00,27.3,10.7,30.03,NW,309,2.0,0.0,49,0.00,,SKC,0.00,VWS V14.01,2013-01-22 10:11:00,
2013-01-22 05:16:00,27.1,10.9,30.04,NW,312,0.0,0.0,50,0.00,,SKC,0.00,VWS V14.01,2013-01-22 10:16:00,
2013-01-22 05:21:00,26.8,10.7,30.04,NW,312,1.0,0.0,50,0.00,,SKC,0.00,VWS V14.01,2013-01-22 10:21:00,
2013-01-22 05:26:00,26.5,10.8,30.05,NW,312,0.0,0.0,51,0.00,,SKC,0.00,VWS V14.01,2013-01-22 10:26:00,
2013-01-22 05:32:00,26.2,11.0,30.05,NW,312,0.0,0.0,52,0.00,,SKC,0.00,VWS V14.01,2013-01-22 10:32:00,
2013-01-22 05:38:00,26.0,10.8,30.05,NW,312,0.0,0.0,52,0.00,,SKC,0.00,VWS V14.01,2013-01-22 10:38:00,
2013-01-22 05:44:00,25.6,10.9,30.05,NW,312,0.0,0.0,53,0.00,,SKC,0.00,VWS V14.01,2013-01-22 10:44:00,
2013-01-22 05:50:00,25.6,10.0,30.06,West,267,1.0,0.0,51,0.00,,SKC,0.00,VWS V14.01,2013-01-22 10:50:00,
2013-01-22 05:56:00,25.9,9.4,30.06,WNW,298,2.0,0.0,49,0.00,,SKC,0.00,VWS V14.01,2013-01-22 10:56:00,
2013-01-22 06:01:00,26.1,10.0,30.06,WNW,301,1.0,0.0,50,0.00,,SKC,0.00,VWS V14.01,2013-01-22 11:01:00,
2013-01-22 06:06:00,26.0,9.5,30.07,WNW,295,0.0,0.0,49,0.00,,SKC,0.00,VWS V14.01,2013-01-22 11:06:00,
2013-01-22 06:12:00,25.9,8.5,30.07,WNW,303,0.0,0.0,47,0.00,,SKC,0.00,VWS V14.01,2013-01-22 11:12:00,
2013-01-22 06:18:00,25.9,8.9,30.08,NW,311,0.0,0.0,48,0.00,,SKC,0.00,VWS V14.01,2013-01-22 11:18:00,
2013-01-22 06:24:00,25.8,7.9,30.08,WNW,303,1.0,0.0,46,0.00,,SKC,0.00,VWS V14.01,2013-01-22 11:24:00,
2013-01-22 06:30:00,25.7,7.8,30.09,NW,319,0.0,0.0,46,0.00,,SKC,0.00,VWS V14.01,2013-01-22 11:30:00,
2013-01-22 06:36:00,25.4,8.5,30.09,NW,319,0.0,0.0,48,0.00,,SKC,0.00,VWS V14.01,2013-01-22 11:36:00,
2013-01-22 06:41:00,24.9,8.0,30.09,NNW,342,0.0,0.0,48,0.00,,SKC,0.00,VWS V14.01,2013-01-22 11:41:00,
2013-01-22 06:46:00,24.7,7.8,30.10,North,354,1.0,0.0,48,0.00,,SKC,0.00,VWS V14.01,2013-01-22 11:46:00,
2013-01-22 06:51:00,24.8,7.9,30.10,North,354,0.0,0.0,48,0.00,,SKC,0.00,VWS V14.01,2013-01-22 11:51:00,
2013-01-22 06:56:00,24.8,7.9,30.10,North,354,1.0,0.0,48,0.00,,SKC,0.00,VWS V14.01,2013-01-22 11:56:00,
2013-01-22 07:01:00,24.9,7.5,30.10,NNW,336,0.0,0.0,47,0.00,,SKC,0.00,VWS V14.01,2013-01-22 12:01:00,
2013-01-22 07:06:00,24.9,7.1,30.11,NNW,329,1.0,0.0,46,0.00,,SKC,0.00,VWS V14.01,2013-01-22 12:06:00,
2013-01-22 07:11:00,24.9,6.6,30.11,NNW,343,2.0,0.0,45,0.00,,SKC,0.00,VWS V14.01,2013-01-22 12:11:00,
2013-01-22 07:16:00,24.9,6.6,30.11,NNW,335,1.0,0.0,45,0.00,,SKC,0.00,VWS V14.01,2013-01-22 12:16:00,
2013-01-22 07:21:00,24.8,5.5,30.11,NNW,342,5.0,0.0,43,0.00,,SKC,0.00,VWS V14.01,2013-01-22 12:21:00,
2013-01-22 07:26:00,24.8,6.0,30.12,NNW,327,4.0,0.0,44,0.00,,SKC,0.00,VWS V14.01,2013-01-22 12:26:00,
2013-01-22 07:31:00,24.7,4.9,30.11,NNW,331,3.0,0.0,42,0.00,,SKC,0.00,VWS V14.01,2013-01-22 12:31:00,
2013-01-22 07:36:00,24.6,5.3,30.12,NW,316,2.0,0.0,43,0.00,,SKC,0.00,VWS V14.01,2013-01-22 12:36:00,
2013-01-22 07:41:00,24.5,4.7,30.12,NW,316,2.0,0.0,42,0.00,,SKC,0.00,VWS V14.01,2013-01-22 12:41:00,
2013-01-22 07:46:00,24.5,4.7,30.12,NW,312,2.0,0.0,42,0.00,,SKC,0.00,VWS V14.01,2013-01-22 12:46:00,
2013-01-22 07:51:00,24.4,5.1,30.13,NW,315,1.0,0.0,43,0.00,,SKC,0.00,VWS V14.01,2013-01-22 12:51:00,
2013-01-22 07:56:00,24.4,4.6,30.13,NW,319,1.0,0.0,42,0.00,,SKC,0.00,VWS V14.01,2013-01-22 12:56:00,
2013-01-22 08:01:00,24.6,4.8,30.13,NNW,337,3.0,0.0,42,0.00,,SKC,0.00,VWS V14.01,2013-01-22 13:01:00,
2013-01-22 08:06:00,24.8,5.0,30.13,NW,325,3.0,0.0,42,0.00,,SKC,0.00,VWS V14.01,2013-01-22 13:06:00,
2013-01-22 08:11:00,25.1,4.2,30.13,NW,305,4.0,0.0,40,0.00,,SKC,0.00,VWS V14.01,2013-01-22 13:11:00,
2013-01-22 08:16:00,25.4,3.9,30.14,NW,304,1.0,0.0,39,0.00,,SKC,0.00,VWS V14.01,2013-01-22 13:16:00,
2013-01-22 08:21:00,25.6,4.6,30.14,NW,316,1.0,0.0,40,0.00,,SKC,0.00,VWS V14.01,2013-01-22 13:21:00,
2013-01-22 08:26:00,25.8,3.7,30.14,NNW,345,4.0,0.0,38,0.00,,SKC,0.00,VWS V14.01,2013-01-22 13:26:00,
2013-01-22 08:31:00,25.9,3.8,30.14,NW,321,3.0,0.0,38,0.00,,SKC,0.00,VWS V14.01,2013-01-22 13:31:00,
2013-01-22 08:36:00,26.2,4.1,30.15,North,356,3.0,0.0,38,0.00,,SKC,0.00,VWS V14.01,2013-01-22 13:36:00,
2013-01-22 08:41:00,26.3,4.2,30.15,NNW,342,5.0,0.0,38,0.00,,SKC,0.00,VWS V14.01,2013-01-22 13:41:00,
2013-01-22 08:46:00,26.5,4.3,30.15,NW,312,4.0,0.0,38,0.00,,SKC,0.00,VWS V14.01,2013-01-22 13:46:00,
2013-01-22 08:51:00,26.8,4.6,30.15,NNW,334,4.0,0.0,38,0.00,,SKC,0.00,VWS V14.01,2013-01-22 13:51:00,
2013-01-22 08:56:00,27.0,4.8,30.15,NW,311,4.0,0.0,38,0.00,,SKC,0.00,VWS V14.01,2013-01-22 13:56:00,
2013-01-22 09:01:00,27.1,3.1,30.15,WNW,302,3.0,0.0,35,0.00,,SKC,0.00,VWS V14.01,2013-01-22 14:01:00,
2013-01-22 09:06:00,27.3,3.3,30.15,WNW,302,2.0,0.0,35,0.00,,SKC,0.00,VWS V14.01,2013-01-22 14:06:00,
2013-01-22 09:12:00,27.8,4.3,30.16,NW,316,3.0,0.0,36,0.00,,SKC,0.00,VWS V14.01,2013-01-22 14:12:00,
2013-01-22 09:18:00,27.8,4.3,30.16,NW,304,7.0,0.0,36,0.00,,SKC,0.00,VWS V14.01,2013-01-22 14:18:00,
2013-01-22 09:24:00,27.7,2.4,30.16,NW,309,5.0,0.0,33,0.00,,SKC,0.00,VWS V14.01,2013-01-22 14:24:00,
2013-01-22 09:30:00,27.7,3.0,30.16,NNW,335,4.0,0.0,34,0.00,,SKC,0.00,VWS V14.01,2013-01-22 14:30:00,
2013-01-22 09:36:00,27.9,1.9,30.17,NW,315,2.0,0.0,32,0.00,,SKC,0.00,VWS V14.01,2013-01-22 14:36:00,
2013-01-22 09:42:00,28.1,3.4,30.17,North,3,3.0,0.0,34,0.00,,SKC,0.00,VWS V14.01,2013-01-22 14:42:00,
2013-01-22 09:49:00,28.1,2.0,30.17,WNW,297,3.0,0.0,32,0.00,,SKC,0.00,VWS V14.01,2013-01-22 14:49:00,
2013-01-22 09:55:00,28.4,3.0,30.17,NW,317,2.0,0.0,33,0.00,,SKC,0.00,VWS V14.01,2013-01-22 14:55:00,
2013-01-22 10:01:00,28.8,2.0,30.17,North,349,2.0,0.0,31,0.00,,SKC,0.00,VWS V14.01,2013-01-22 15:01:00,
2013-01-22 10:06:00,28.8,2.0,30.17,NNW,327,6.0,0.0,31,0.00,,SKC,0.00,VWS V14.01,2013-01-22 15:06:00,
2013-01-22 10:11:00,28.9,2.1,30.17,NNW,339,6.0,0.0,31,0.00,,SKC,0.00,VWS V14.01,2013-01-22 15:11:00,
2013-01-22 10:16:00,29.3,2.4,30.17,WNW,302,3.0,0.0,31,0.00,,SKC,0.00,VWS V14.01,2013-01-22 15:16:00,
2013-01-22 10:21:00,29.5,1.9,30.17,NW,314,2.0,0.0,30,0.00,,SKC,0.00,VWS V14.01,2013-01-22 15:21:00,
2013-01-22 10:26:00,29.4,1.8,30.17,NW,316,2.0,0.0,30,0.00,,SKC,0.00,VWS V14.01,2013-01-22 15:26:00,
2013-01-22 10:31:00,29.6,1.3,30.17,NW,319,4.0,0.0,29,0.00,,SKC,0.00,VWS V14.01,2013-01-22 15:31:00,
2013-01-22 10:36:00,29.9,2.2,30.17,SW,231,4.0,0.0,30,0.00,,SKC,0.00,VWS V14.01,2013-01-22 15:36:00,
2013-01-22 10:41:00,30.4,3.4,30.18,West,277,0.0,0.0,31,0.00,,SKC,0.00,VWS V14.01,2013-01-22 15:41:00,
2013-01-22 10:46:00,30.7,1.5,30.18,SW,221,3.0,0.0,28,0.00,,SKC,0.00,VWS V14.01,2013-01-22 15:46:00,
2013-01-22 10:51:00,30.9,1.6,30.18,WNW,301,2.0,0.0,28,0.00,,SKC,0.00,VWS V14.01,2013-01-22 15:51:00,
2013-01-22 10:56:00,31.0,3.2,30.18,NW,312,4.0,0.0,30,0.00,,SKC,0.00,VWS V14.01,2013-01-22 15:56:00,
2013-01-22 11:01:00,31.0,1.7,30.18,WNW,297,1.0,0.0,28,0.00,,SKC,0.00,VWS V14.01,2013-01-22 16:01:00,
2013-01-22 11:06:00,30.9,0.9,30.18,NNW,327,4.0,0.0,27,0.00,,SKC,0.00,VWS V14.01,2013-01-22 16:06:00,
2013-01-22 11:11:00,31.1,2.6,30.17,NW,307,2.0,0.0,29,0.00,,SKC,0.00,VWS V14.01,2013-01-22 16:11:00,
2013-01-22 11:16:00,31.4,1.3,30.17,NNE,18,5.0,0.0,27,0.00,,SKC,0.00,VWS V14.01,2013-01-22 16:16:00,
2013-01-22 11:21:00,31.4,2.1,30.17,NW,325,5.0,0.0,28,0.00,,SKC,0.00,VWS V14.01,2013-01-22 16:21:00,
2013-01-22 11:26:00,31.5,0.6,30.17,NW,321,5.0,0.0,26,0.00,,SKC,0.00,VWS V14.01,2013-01-22 16:26:00,
2013-01-22 11:31:00,31.8,1.6,30.17,NW,311,2.0,0.0,27,0.00,,SKC,0.00,VWS V14.01,2013-01-22 16:31:00,
2013-01-22 11:36:00,32.3,2.9,30.17,WNW,299,4.0,0.0,28,0.00,,SKC,0.00,VWS V14.01,2013-01-22 16:36:00,
2013-01-22 11:41:00,32.1,2.7,30.17,NW,305,3.0,0.0,28,0.00,,SKC,0.00,VWS V14.01,2013-01-22 16:41:00,
2013-01-22 11:46:00,32.1,1.1,30.17,NW,307,7.0,0.0,26,0.00,,SKC,0.00,VWS V14.01,2013-01-22 16:46:00,
2013-01-22 11:51:00,31.8,0.0,30.17,WNW,298,3.0,0.0,25,0.00,,SKC,0.00,VWS V14.01,2013-01-22 16:51:00,
2013-01-22 11:57:00,31.8,1.6,30.16,NW,322,4.0,0.0,27,0.00,,SKC,0.00,VWS V14.01,2013-01-22 16:57:00,
2013-01-22 12:04:00,32.1,2.7,30.16,NNW,329,2.0,0.0,28,0.00,,SKC,0.00,VWS V14.01,2013-01-22 17:04:00,
2013-01-22 12:10:00,32.7,1.6,30.16,North,5,5.0,0.0,26,0.00,,SKC,0.00,VWS V14.01,2013-01-22 17:10:00,
2013-01-22 12:16:00,32.8,1.7,30.15,NW,319,3.0,0.0,26,0.00,,SKC,0.00,VWS V14.01,2013-01-22 17:16:00,
2013-01-22 12:21:00,33.0,1.0,30.15,WNW,301,2.0,0.0,25,0.00,,SKC,0.00,VWS V14.01,2013-01-22 17:21:00,
2013-01-22 12:26:00,33.2,2.8,30.15,NW,316,2.0,0.0,27,0.00,,SKC,0.00,VWS V14.01,2013-01-22 17:26:00,
2013-01-22 12:32:00,33.1,1.1,30.15,WNW,288,3.0,0.0,25,0.00,,SKC,0.00,VWS V14.01,2013-01-22 17:32:00,
2013-01-22 12:39:00,32.9,1.8,30.15,WSW,256,1.0,0.0,26,0.00,,SKC,0.00,VWS V14.01,2013-01-22 17:39:00,
2013-01-22 12:45:00,33.5,3.9,30.14,WNW,297,1.0,0.0,28,0.00,,SKC,0.00,VWS V14.01,2013-01-22 17:45:00,
2013-01-22 12:51:00,33.9,3.5,30.14,WSW,254,4.0,0.0,27,0.00,,SKC,0.00,VWS V14.01,2013-01-22 17:51:00,
2013-01-22 12:56:00,33.9,1.8,30.14,WNW,300,1.0,0.0,25,0.00,,SKC,0.00,VWS V14.01,2013-01-22 17:56:00,
2013-01-22 13:01:00,33.8,1.7,30.14,WSW,253,1.0,0.0,25,0.00,,SKC,0.00,VWS V14.01,2013-01-22 18:01:00,
2013-01-22 13:06:00,33.7,3.3,30.14,WNW,297,1.0,0.0,27,0.00,,SKC,0.00,VWS V14.01,2013-01-22 18:06:00,
2013-01-22 13:11:00,34.0,2.7,30.13,NW,304,2.0,0.0,26,0.00,,SKC,0.00,VWS V14.01,2013-01-22 18:11:00,
2013-01-22 13:17:00,33.9,2.7,30.13,SW,228,0.0,0.0,26,0.00,,SKC,0.00,VWS V14.01,2013-01-22 18:17:00,
2013-01-22 13:23:00,34.1,2.8,30.13,West,263,1.0,0.0,26,0.00,,SKC,0.00,VWS V14.01,2013-01-22 18:23:00,
2013-01-22 13:29:00,34.5,3.2,30.12,SW,215,2.0,0.0,26,0.00,,SKC,0.00,VWS V14.01,2013-01-22 18:29:00,
2013-01-22 13:35:00,34.5,3.2,30.12,NNW,331,3.0,0.0,26,0.00,,SKC,0.00,VWS V14.01,2013-01-22 18:35:00,
2013-01-22 13:41:00,34.7,2.5,30.12,West,277,7.0,0.0,25,0.00,,SKC,0.00,VWS V14.01,2013-01-22 18:41:00,
2013-01-22 13:46:00,34.6,1.5,30.12,West,262,4.0,0.0,24,0.00,,SKC,0.00,VWS V14.01,2013-01-22 18:46:00,
2013-01-22 13:52:00,34.9,3.5,30.12,WNW,287,3.0,0.0,26,0.00,,SKC,0.00,VWS V14.01,2013-01-22 18:52:00,
2013-01-22 13:58:00,35.2,1.1,30.12,NW,325,3.0,0.0,23,0.00,,SKC,0.00,VWS V14.01,2013-01-22 18:58:00,
2013-01-22 14:04:00,35.6,2.4,30.12,NNW,342,3.0,0.0,24,0.00,,SKC,0.00,VWS V14.01,2013-01-22 19:04:00,
2013-01-22 14:10:00,35.6,1.5,30.12,SSW,198,1.0,0.0,23,0.00,,SKC,0.00,VWS V14.01,2013-01-22 19:10:00,
2013-01-22 14:16:00,35.3,0.3,30.12,WNW,295,2.0,0.0,22,0.00,,SKC,0.00,VWS V14.01,2013-01-22 19:16:00,
2013-01-22 14:22:00,35.3,1.2,30.11,WNW,297,3.0,0.0,23,0.00,,SKC,0.00,VWS V14.01,2013-01-22 19:22:00,
2013-01-22 14:28:00,35.5,2.3,30.12,SW,217,10.0,0.0,24,0.00,,SKC,0.00,VWS V14.01,2013-01-22 19:28:00,
2013-01-22 14:34:00,35.6,-0.5,30.11,East,85,0.0,0.0,21,0.00,,SKC,0.00,VWS V14.01,2013-01-22 19:34:00,
2013-01-22 14:40:00,35.8,1.6,30.12,WNW,291,5.0,0.0,23,0.00,,SKC,0.00,VWS V14.01,2013-01-22 19:40:00,
2013-01-22 14:46:00,35.6,1.5,30.12,NNW,336,2.0,0.0,23,0.00,,SKC,0.00,VWS V14.01,2013-01-22 19:46:00,
2013-01-22 14:51:00,35.8,1.6,30.12,West,280,3.0,0.0,23,0.00,,SKC,0.00,VWS V14.01,2013-01-22 19:51:00,
2013-01-22 14:56:00,35.9,-0.2,30.12,SW,225,1.0,0.0,21,0.00,,SKC,0.00,VWS V14.01,2013-01-22 19:56:00,
2013-01-22 15:03:00,35.9,-0.2,30.12,West,270,7.0,0.0,21,0.00,,SKC,0.00,VWS V14.01,2013-01-22 20:03:00,
2013-01-22 15:09:00,36.3,1.1,30.12,NW,321,5.0,0.0,22,0.00,,SKC,0.00,VWS V14.01,2013-01-22 20:09:00,
2013-01-22 15:15:00,36.1,-0.1,30.13,WNW,294,3.0,0.0,21,0.00,,SKC,0.00,VWS V14.01,2013-01-22 20:15:00,
2013-01-22 15:21:00,35.9,-0.2,30.12,NNW,337,4.0,0.0,21,0.00,,SKC,0.00,VWS V14.01,2013-01-22 20:21:00,
2013-01-22 15:26:00,35.9,-0.2,30.12,WNW,302,2.0,0.0,21,0.00,,SKC,0.00,VWS V14.01,2013-01-22 20:26:00,
2013-01-22 15:31:00,36.1,-0.1,30.12,NNW,340,1.0,0.0,21,0.00,,SKC,0.00,VWS V14.01,2013-01-22 20:31:00,
2013-01-22 15:36:00,36.7,1.5,30.12,West,277,1.0,0.0,22,0.00,,SKC,0.00,VWS V14.01,2013-01-22 20:36:00,
2013-01-22 15:41:00,36.7,1.5,30.13,SW,215,2.0,0.0,22,0.00,,SKC,0.00,VWS V14.01,2013-01-22 20:41:00,
2013-01-22 15:46:00,36.6,0.4,30.12,West,279,3.0,0.0,21,0.00,,SKC,0.00,VWS V14.01,2013-01-22 20:46:00,
2013-01-22 15:51:00,36.4,0.2,30.12,WNW,283,1.0,0.0,21,0.00,,SKC,0.00,VWS V14.01,2013-01-22 20:51:00,
2013-01-22 15:56:00,36.5,2.2,30.12,West,278,2.0,0.0,23,0.00,,SKC,0.00,VWS V14.01,2013-01-22 20:56:00,
2013-01-22 16:01:00,36.5,0.3,30.12,NW,312,2.0,0.0,21,0.00,,SKC,0.00,VWS V14.01,2013-01-22 21:01:00,
2013-01-22 16:06:00,36.1,1.9,30.12,NW,310,2.0,0.0,23,0.00,,SKC,0.00,VWS V14.01,2013-01-22 21:06:00,
2013-01-22 16:11:00,36.5,2.2,30.13,WNW,284,5.0,0.0,23,0.00,,SKC,0.00,VWS V14.01,2013-01-22 21:11:00,
2013-01-22 16:16:00,36.2,1.0,30.13,SW,233,4.0,0.0,22,0.00,,SKC,0.00,VWS V14.01,2013-01-22 21:16:00,
2013-01-22 16:21:00,36.1,-0.1,30.13,WNW,288,1.0,0.0,21,0.00,,SKC,0.00,VWS V14.01,2013-01-22 21:21:00,
2013-01-22 16:26:00,36.1,0.9,30.13,SW,220,2.0,0.0,22,0.00,,SKC,0.00,VWS V14.01,2013-01-22 21:26:00,
2013-01-22 16:31:00,36.1,-0.1,30.13,WNW,285,2.0,0.0,21,0.00,,SKC,0.00,VWS V14.01,2013-01-22 21:31:00,
2013-01-22 16:36:00,35.9,0.8,30.12,WNW,283,2.0,0.0,22,0.00,,SKC,0.00,VWS V14.01,2013-01-22 21:36:00,
2013-01-22 16:42:00,35.4,0.3,30.13,WNW,283,3.0,0.0,22,0.00,,SKC,0.00,VWS V14.01,2013-01-22 21:42:00,
2013-01-22 16:48:00,35.3,0.3,30.13,NW,305,1.0,0.0,22,0.00,,SKC,0.00,VWS V14.01,2013-01-22 21:48:00,
2013-01-22 16:54:00,35.3,1.2,30.13,WNW,287,2.0,0.0,23,0.00,,SKC,0.00,VWS V14.01,2013-01-22 21:54:00,
2013-01-22 17:00:00,35.0,0.0,30.12,WSW,249,2.0,0.0,22,0.00,,SKC,0.00,VWS V14.01,2013-01-22 22:00:00,
2013-01-22 17:06:00,34.3,0.4,30.12,NW,305,2.0,0.0,23,0.00,,SKC,0.00,VWS V14.01,2013-01-22 22:06:00,
2013-01-22 17:11:00,33.7,0.8,30.12,NNW,328,1.0,0.0,24,0.00,,SKC,0.00,VWS V14.01,2013-01-22 22:11:00,
2013-01-22 17:16:00,33.2,2.0,30.13,WNW,298,0.0,0.0,26,0.00,,SKC,0.00,VWS V14.01,2013-01-22 22:16:00,
2013-01-22 17:21:00,32.6,1.5,30.13,SW,226,0.0,0.0,26,0.00,,SKC,0.00,VWS V14.01,2013-01-22 22:21:00,
2013-01-22 17:26:00,32.3,1.3,30.14,NNW,327,1.0,0.0,26,0.00,,SKC,0.00,VWS V14.01,2013-01-22 22:26:00,
2013-01-22 17:31:00,31.9,2.5,30.14,NW,309,2.0,0.0,28,0.00,,SKC,0.00,VWS V14.01,2013-01-22 22:31:00,
2013-01-22 17:36:00,31.6,2.2,30.14,NNW,333,1.0,0.0,28,0.00,,SKC,0.00,VWS V14.01,2013-01-22 22:36:00,
2013-01-22 17:42:00,31.1,1.8,30.15,NW,309,0.0,0.0,28,0.00,,SKC,0.00,VWS V14.01,2013-01-22 22:42:00,
2013-01-22 17:48:00,30.6,2.1,30.15,NW,307,0.0,0.0,29,0.00,,SKC,0.00,VWS V14.01,2013-01-22 22:48:00,
2013-01-22 17:54:00,30.2,2.5,30.15,NW,307,0.0,0.0,30,0.00,,SKC,0.00,VWS V14.01,2013-01-22 22:54:00,
2013-01-22 18:01:00,29.8,2.2,30.15,NW,307,0.0,0.0,30,0.00,,SKC,0.00,VWS V14.01,2013-01-22 23:01:00,
2013-01-22 18:06:00,29.6,2.0,30.16,NW,307,0.0,0.0,30,0.00,,SKC,0.00,VWS V14.01,2013-01-22 23:06:00,
2013-01-22 18:11:00,29.3,2.4,30.16,NW,307,0.0,0.0,31,0.00,,SKC,0.00,VWS V14.01,2013-01-22 23:11:00,
2013-01-22 18:16:00,29.1,2.2,30.16,NW,307,0.0,0.0,31,0.00,,SKC,0.00,VWS V14.01,2013-01-22 23:16:00,
2013-01-22 18:21:00,28.8,2.7,30.16,NW,307,0.0,0.0,32,0.00,,SKC,0.00,VWS V14.01,2013-01-22 23:21:00,
2013-01-22 18:26:00,28.6,3.2,30.16,NW,307,0.0,0.0,33,0.00,,SKC,0.00,VWS V14.01,2013-01-22 23:26:00,
2013-01-22 18:31:00,28.4,3.0,30.17,NW,307,0.0,0.0,33,0.00,,SKC,0.00,VWS V14.01,2013-01-22 23:31:00,
2013-01-22 18:36:00,28.2,2.1,30.17,NW,307,0.0,0.0,32,0.00,,SKC,0.00,VWS V14.01,2013-01-22 23:36:00,
2013-01-22 18:41:00,28.2,2.8,30.17,NW,308,0.0,0.0,33,0.00,,SKC,0.00,VWS V14.01,2013-01-22 23:41:00,
2013-01-22 18:46:00,28.0,2.6,30.17,NW,307,0.0,0.0,33,0.00,,SKC,0.00,VWS V14.01,2013-01-22 23:46:00,
2013-01-22 18:51:00,27.8,3.1,30.17,NW,307,0.0,0.0,34,0.00,,SKC,0.00,VWS V14.01,2013-01-22 23:51:00,
2013-01-22 18:58:00,27.6,2.9,30.16,NW,307,0.0,0.0,34,0.00,,SKC,0.00,VWS V14.01,2013-01-22 23:58:00,
2013-01-22 19:04:00,27.1,1.2,30.16,NW,307,0.0,0.0,32,0.00,,SKC,0.00,VWS V14.01,2013-01-23 00:04:00,
2013-01-22 19:10:00,27.2,1.9,30.16,NW,308,0.0,0.0,33,0.00,,SKC,0.00,VWS V14.01,2013-01-23 00:10:00,
2013-01-22 19:16:00,27.3,2.0,30.17,NW,307,1.0,0.0,33,0.00,,SKC,0.00,VWS V14.01,2013-01-23 00:16:00,
2013-01-22 19:21:00,27.2,1.9,30.16,NW,317,1.0,0.0,33,0.00,,SKC,0.00,VWS V14.01,2013-01-23 00:21:00,
2013-01-22 19:26:00,27.1,1.8,30.16,NW,317,0.0,0.0,33,0.00,,SKC,0.00,VWS V14.01,2013-01-23 00:26:00,
2013-01-22 19:31:00,27.0,1.7,30.15,NW,317,0.0,0.0,33,0.00,,SKC,0.00,VWS V14.01,2013-01-23 00:31:00,
2013-01-22 19:36:00,27.0,2.4,30.16,NW,316,0.0,0.0,34,0.00,,SKC,0.00,VWS V14.01,2013-01-23 00:36:00,
2013-01-22 19:41:00,26.6,3.8,30.16,NW,316,0.0,0.0,37,0.00,,SKC,0.00,VWS V14.01,2013-01-23 00:41:00,
2013-01-22 19:46:00,26.4,3.7,30.17,NW,316,0.0,0.0,37,0.00,,SKC,0.00,VWS V14.01,2013-01-23 00:46:00,
2013-01-22 19:51:00,26.5,3.8,30.17,NW,316,0.0,0.0,37,0.00,,SKC,0.00,VWS V14.01,2013-01-23 00:51:00,
2013-01-22 19:56:00,26.4,3.7,30.17,NW,316,0.0,0.0,37,0.00,,SKC,0.00,VWS V14.01,2013-01-23 00:56:00,
2013-01-22 20:01:00,26.0,3.9,30.17,NW,316,0.0,0.0,38,0.00,,SKC,0.00,VWS V14.01,2013-01-23 01:01:00,
2013-01-22 20:06:00,25.5,4.0,30.17,NW,316,0.0,0.0,39,0.00,,SKC,0.00,VWS V14.01,2013-01-23 01:06:00,
2013-01-22 20:11:00,25.6,4.1,30.17,NW,316,0.0,0.0,39,0.00,,SKC,0.00,VWS V14.01,2013-01-23 01:11:00,
2013-01-22 20:16:00,25.8,4.8,30.17,NW,316,0.0,0.0,40,0.00,,SKC,0.00,VWS V14.01,2013-01-23 01:16:00,
2013-01-22 20:21:00,25.9,5.4,30.17,NW,316,0.0,0.0,41,0.00,,SKC,0.00,VWS V14.01,2013-01-23 01:21:00,
2013-01-22 20:26:00,26.0,5.0,30.17,NW,316,0.0,0.0,40,0.00,,SKC,0.00,VWS V14.01,2013-01-23 01:26:00,
2013-01-22 20:31:00,25.8,3.7,30.17,NW,316,0.0,0.0,38,0.00,,SKC,0.00,VWS V14.01,2013-01-23 01:31:00,
2013-01-22 20:36:00,25.7,2.5,30.17,NW,316,0.0,0.0,36,0.00,,SKC,0.00,VWS V14.01,2013-01-23 01:36:00,
2013-01-22 20:41:00,25.8,2.5,30.17,NW,316,0.0,0.0,36,0.00,,SKC,0.00,VWS V14.01,2013-01-23 01:41:00,
2013-01-22 20:46:00,25.6,2.4,30.17,NW,316,0.0,0.0,36,0.00,,SKC,0.00,VWS V14.01,2013-01-23 01:46:00,
2013-01-22 20:51:00,25.5,2.3,30.17,NW,316,0.0,0.0,36,0.00,,SKC,0.00,VWS V14.01,2013-01-23 01:51:00,
2013-01-22 20:56:00,25.3,2.1,30.17,NW,316,0.0,0.0,36,0.00,,SKC,0.00,VWS V14.01,2013-01-23 01:56:00,
2013-01-22 21:01:00,25.3,2.1,30.17,NW,317,0.0,0.0,36,0.00,,SKC,0.00,VWS V14.01,2013-01-23 02:01:00,
2013-01-22 21:06:00,25.7,2.5,30.17,NW,319,1.0,0.0,36,0.00,,SKC,0.00,VWS V14.01,2013-01-23 02:06:00,
2013-01-22 21:11:00,25.7,3.0,30.17,NNW,331,1.0,0.0,37,0.00,,SKC,0.00,VWS V14.01,2013-01-23 02:11:00,
2013-01-22 21:16:00,25.7,3.6,30.17,NNW,333,1.0,0.0,38,0.00,,SKC,0.00,VWS V14.01,2013-01-23 02:16:00,
2013-01-22 21:21:00,25.5,3.4,30.18,NW,313,1.0,0.0,38,0.00,,SKC,0.00,VWS V14.01,2013-01-23 02:21:00,
2013-01-22 21:26:00,25.4,3.9,30.18,North,356,1.0,0.0,39,0.00,,SKC,0.00,VWS V14.01,2013-01-23 02:26:00,
2013-01-22 21:32:00,25.3,4.4,30.18,WNW,297,0.0,0.0,40,0.00,,SKC,0.00,VWS V14.01,2013-01-23 02:32:00,
2013-01-22 21:38:00,24.7,3.8,30.19,WNW,297,0.0,0.0,40,0.00,,SKC,0.00,VWS V14.01,2013-01-23 02:38:00,
2013-01-22 21:44:00,24.5,3.1,30.20,WNW,297,0.0,0.0,39,0.00,,SKC,0.00,VWS V14.01,2013-01-23 02:44:00,
2013-01-22 21:50:00,24.2,4.9,30.20,WNW,297,0.0,0.0,43,0.00,,SKC,0.00,VWS V14.01,2013-01-23 02:50:00,
2013-01-22 21:56:00,23.6,4.4,30.21,WSW,256,0.0,0.0,43,0.00,,SKC,0.00,VWS V14.01,2013-01-23 02:56:00,
2013-01-22 22:01:00,23.2,4.5,30.21,WSW,256,0.0,0.0,44,0.00,,SKC,0.00,VWS V14.01,2013-01-23 03:01:00,
2013-01-22 22:06:00,23.0,4.3,30.21,WSW,256,0.0,0.0,44,0.00,,SKC,0.00,VWS V14.01,2013-01-23 03:06:00,
2013-01-22 22:11:00,22.9,3.2,30.20,WSW,256,0.0,0.0,42,0.00,,SKC,0.00,VWS V14.01,2013-01-23 03:11:00,
2013-01-22 22:16:00,22.9,3.2,30.21,WSW,254,0.0,0.0,42,0.00,,SKC,0.00,VWS V14.01,2013-01-23 03:16:00,
2013-01-22 22:21:00,23.4,3.7,30.21,WSW,252,0.0,0.0,42,0.00,,SKC,0.00,VWS V14.01,2013-01-23 03:21:00,
2013-01-22 22:26:00,23.8,3.5,30.20,WSW,253,0.0,0.0,41,0.00,,SKC,0.00,VWS V14.01,2013-01-23 03:26:00,
2013-01-22 22:31:00,23.9,4.7,30.20,WSW,254,1.0,0.0,43,0.00,,SKC,0.00,VWS V14.01,2013-01-23 03:31:00,
2013-01-22 22:36:00,24.0,4.2,30.20,NNW,346,1.0,0.0,42,0.00,,SKC,0.00,VWS V14.01,2013-01-23 03:36:00,
2013-01-22 22:41:00,23.8,4.1,30.20,NNW,346,0.0,0.0,42,0.00,,SKC,0.00,VWS V14.01,2013-01-23 03:41:00,
2013-01-22 22:46:00,23.4,4.7,30.20,NNW,346,0.0,0.0,44,0.00,,SKC,0.00,VWS V14.01,2013-01-23 03:46:00,
2013-01-22 22:51:00,22.9,5.7,30.20,NNW,346,0.0,0.0,47,0.00,,SKC,0.00,VWS V14.01,2013-01-23 03:51:00,
2013-01-22 22:56:00,22.4,5.7,30.20,NNW,346,0.0,0.0,48,0.00,,SKC,0.00,VWS V14.01,2013-01-23 03:56:00,
2013-01-22 23:01:00,22.0,3.9,30.20,NNW,346,0.0,0.0,45,0.00,,SKC,0.00,VWS V14.01,2013-01-23 04:01:00,
2013-01-22 23:06:00,21.7,3.7,30.20,NNW,346,0.0,0.0,45,0.00,,SKC,0.00,VWS V14.01,2013-01-23 04:06:00,
2013-01-22 23:13:00,21.5,4.9,30.20,NNW,346,0.0,0.0,48,0.00,,SKC,0.00,VWS V14.01,2013-01-23 04:13:00,
2013-01-22 23:19:00,21.3,4.2,30.21,NNW,346,0.0,0.0,47,0.00,,SKC,0.00,VWS V14.01,2013-01-23 04:19:00,
2013-01-22 23:25:00,22.3,4.2,30.20,NNW,339,2.0,0.0,45,0.00,,SKC,0.00,VWS V14.01,2013-01-23 04:25:00,
2013-01-22 23:31:00,23.0,4.3,30.20,NNW,329,1.0,0.0,44,0.00,,SKC,0.00,VWS V14.01,2013-01-23 04:31:00,
2013-01-22 23:36:00,23.0,4.8,30.20,NW,325,0.0,0.0,45,0.00,,SKC,0.00,VWS V14.01,2013-01-23 04:36:00,
2013-01-22 23:41:00,22.7,6.0,30.20,NW,325,0.0,0.0,48,0.00,,SKC,0.00,VWS V14.01,2013-01-23 04:41:00,
2013-01-22 23:46:00,22.2,5.1,30.20,NW,324,0.0,0.0,47,0.00,,SKC,0.00,VWS V14.01,2013-01-23 04:46:00,
2013-01-22 23:51:00,21.6,4.0,30.20,NW,325,0.0,0.0,46,0.00,,SKC,0.00,VWS V14.01,2013-01-23 04:51:00,
2013-01-22 23:57:00,21.8,5.1,30.19,NNW,340,0.0,0.0,48,0.00,,SKC,0.00,VWS V14.01,2013-01-23 04:57:00,